Regional Weather Roundup
Issued by NWS New Orleans/Baton Rouge, LA

Home | Current Version | Previous Version | Text Only | Print | Product List | Glossary On
Versions: 1 2 3 4 5 6 7 8 9 10 11 12 13 14 15 16 17 18 19 20 21 22 23 24 25 26 27 28 29 30 31 32 33 34 35 36 37 38 39 40 41 42 43 44 45 46 47 48 49 50
272
ASUS44 KLIX 290305
RWRLIX
NEW ORLEANS REGIONAL WEATHER ROUNDUP
NATIONAL WEATHER SERVICE NEW ORLEANS LA
1000 PM CDT MON JUL 28 2014

NOTE: "FAIR" INDICATES FEW OR NO CLOUDS BELOW 12,000 FEET WITH NO
      SIGNIFICANT WEATHER AND/OR OBSTRUCTIONS TO VISIBILITY.
      SKY/WX - SKY CONDITION AND SIGNIFICANT WEATHER.
      TMP - AIR TEMPERATURE.     DP    - DEWPOINT TEMPERATURE.
      RH  - RELATIVE HUMIDITY.   PRES  - PRESSURE.
      HI  - HEAT INDEX.          WCI   - WIND CHILL INDEX.

*  THESE STATIONS ARE NOT NWS OR FAA STATIONS AND ARE NOT UNDER
   NWS QUALITY CONTROL.

LAZ038-040-048-061>063-065>067-069-290400-
SOUTHEAST LOUISIANA

CITY           SKY/WX    TMP DP  RH WIND       PRES   REMARKS
N.O. AUDUBON     N/A     87  76  69 MISG        N/A  HX  97
N.O. INTL ARPT CLOUDY    84  76  76 W6        30.01R
N.O. LAKEFRONT MOCLDY    87  78  74 W14       30.02R HX 100
N.O. DOWNTOWN*   N/A     88  73  62 W5        30.02R HX  96
SLIDELL        CLOUDY    79  74  84 CALM      30.01R
BATON ROUGE    CLOUDY    80  72  76 NW6       30.04R
BOOTHVILLE     PTCLDY    84  79  85 W6        30.02R HX  96
BELLE CHASSE   MOCLDY    84  74  71 W6        30.02R
BOGALUSA*        N/A     80  73  79 CALM      30.03R
GALLIANO*      NOT AVBL
NEW ROADS*       N/A     76  74  92 CALM      30.04S
GONZALES*        N/A     82  78  87 W5        30.03R
HAMMOND*       MOCLDY    82  73  74 NW6       30.04R
HOUMA*         PTCLDY    82  76  83 CALM      30.02S
PORT FOURCHON* CLEAR     86  79  79 W10       30.05R HX  99

$$

MSZ070-080>082-290400-
SOUTHERN MISSISSIPPI

CITY           SKY/WX    TMP DP  RH WIND       PRES   REMARKS
MCCOMB         PTCLDY    78  74  87 NW3       30.05R
GULFPORT       PTCLDY    87  77  72 W5        29.99R HX  99
BILOXI         PTCLDY    85  78  80 VRB2      29.99R HX  96
PASCAGOULA     MOCLDY    81  75  82 CALM      29.98R

$$

COASTAL OBSERVATIONS
LAKE AND NEARSHORE STATIONS

STATION/POSITION TIME  TEMP    WIND        PRES    WAVE
                       AIR SEA DIR/SP/G            HT/PER
                 (UTC) (F)     (DEG/KT/KT) (MB)    (FT/S)
PASCAGOULA       0300   86     300/  4/  6 1014.8
WAVELAND YACHT   0300   83     290/  8/ 10 1015.3
GRAND ISLE       0300   86 88  300/ 13/ 17 1017.3
SOUTHWEST PASS   0300   85 85  280/ 15/ 22 1017.1
NEW CANAL        0300   88 85  270/  9/ 13 1016.8
SHELL BEACH      0300   85 84  260/  9/ 10 1015.9

OFFSHORE STATIONS

STATION/POSITION TIME  TEMP    WIND        PRES    WAVE
                       AIR SEA DIR/SP/G            HT/PER
                 (UTC) (F)     (DEG/KT/KT) (MB)    (FT/S)
64 S DAUPHIN ISL 0247   85 86  260/ 16/ 17 1015.9

$$




USA.gov is the U.S. government's official web portal to all federal, state and local government web resources and services.